TDRS 3

Last updated on Sat Dec 13 2025 00:02:40 GMT+0000 (Coordinated Universal Time)

1 19548U 88091B 25345.83870993 -.00000299 00000+0 00000+0 0 9998 2 19548 12.7448 342.2425 0042459 343.7783 7.9114 1.00273350123500
UTC large
Height (km)
Speed (km/s)
/
Latitude / Longitude
Inclination (degrees)
Orbital Period (minutes)
Azimuth
Elevation
Range (km)
Doppler Factor

Next 0 passes for location: London (51.5072 / 0.1276)

Sorry there are no passes over London.